Other Public Products
Issued by NWS Charleston, SC

Current Version | Previous Version | Graphics & Text | Print | Product List | Glossary On
Versions: 1 2 3 4 5 6 7 8 9 10 11 12 13 14 15 16 17 18 19 20 21 22 23 24 25 26 27 28 29 30 31 32 33 34 35 36 37 38 39 40 41 42 43 44 45 46 47 48 49 50
288 FPUS82 KCHS 210612 OPUCHS TEST...KCHS/KSAV Gateway Observations...TEST National Weather Service Charleston SC 200 AM EDT FRI JUL 21 2017 NOTE: "fair" indicates few or no clouds below 12,000 feet with no significant weather and/or obstructions to visibility. SCZ050-WAZ558-NCZ071-TXZ119-213-PAZ071-DCZ001-FLZ074-172-MI076- NYZ176-178-MAZ016-IL014-TNZ027-NJZ106-GAZ044-MD014-210700- ...Gateway Observations for Charleston International... CITY SKY/WX TMP DP RH WIND PRES REMARKS Chas Airport CLEAR 77 74 90 SW5 30.03F 6HR MIN TEMP: 76; 6HR MAX TEMP: 83; Seattle PTCLDY 61 53 75 N6 30.14S 6HR MIN TEMP: 61; 6HR MAX TEMP: 74; Charlotte PTCLDY 77 70 79 W3 30.05S 6HR MIN TEMP: 77; 6HR MAX TEMP: 88; Dallas DFW CLEAR 85 71 63 S6 30.00F HX 90 6HR MIN TEMP: 85; 6HR MAX TEMP: 97; Dallas Love CLEAR 88 69 53 S9 30.01S HX 92 6HR MIN TEMP: 88; 6HR MAX TEMP: 96; Philladelphia MOCLDY 83 68 60 SW6 29.90S 6HR MIN TEMP: 81; 6HR MAX TEMP: 92; Wash National CLEAR 86 70 58 NW8 29.93F HX 90 6HR MIN TEMP: 85; 6HR MAX TEMP: 92; Baltimore MOCLDY 81 70 69 W6 29.92S 6HR MIN TEMP: 81; 6HR MAX TEMP: 92; Miami PTCLDY 83 76 79 CALM 30.03F HX 91 6HR MIN TEMP: 82; 6HR MAX TEMP: 86; Detroit PTCLDY 76 72 87 W5 29.95S 6HR MIN TEMP: 76; 6HR MAX TEMP: 84; Newark CLOUDY 76 69 79 W7 29.89S 6HR MIN TEMP: 76; 6HR MAX TEMP: 90; 6HR PCP: TRACE; Laguardia MOCLDY 80 69 69 NW8 29.87S 6HR MIN TEMP: 79; 6HR MAX TEMP: 91; 6HR PCP: TRACE; J F K CLOUDY 80 71 74 W10 29.89R 6HR MIN TEMP: 80; 6HR MAX TEMP: 90; 6HR PCP: TRACE; Boston Logan CLEAR 78 65 63 W3 29.81F 6HR MIN TEMP: 71; 6HR MAX TEMP: 88; 6HR PCP: TRACE; Ft. Lauderdale PTCLDY 82 77 84 CALM 30.02F HX 90 6HR MIN TEMP: 82; 6HR MAX TEMP: 84; Chicago O`Hare CLOUDY 75 69 81 CALM 29.96F 6HR MIN TEMP: 74; 6HR MAX TEMP: 80; Chicago Midway CLOUDY 78 69 73 NE6 29.95F 6HR MIN TEMP: 78; 6HR MAX TEMP: 82; Houston Bush PTCLDY 83 73 72 SW3 30.03S 6HR MIN TEMP: 82; 6HR MAX TEMP: 93; Houston Hobby PTCLDY 83 73 72 SW3 30.03S 6HR MIN TEMP: 82; 6HR MAX TEMP: 90; Nashville MOCLDY 78 73 84 S6 30.05S 6HR MIN TEMP: 78; 6HR MAX TEMP: 89; Atlanta PTCLDY 79 74 84 NW6 30.05F 6HR MIN TEMP: 79; 6HR MAX TEMP: 89; $$ GAZ044-118-TXZ119-213-NCZ071-DCZ001-MDZ014-506-PAZ021-071-NJZ106- NYZ176-178-MAZ106-OHZ011-021-055-MIZ076-KYZ091-ILZ014-INZ047- MNZ060-ONZ431-210700- ...Gateway Observations for Savannah International... CITY SKY/WX TMP DP RH WIND PRES REMARKS Savannah Arpt CLEAR N/A N/A N/A W3 30.05 Atlanta PTCLDY 79 74 84 NW6 30.05F 6HR MIN TEMP: 79; 6HR MAX TEMP: 89; Charlotte PTCLDY 77 70 79 W3 30.05S 6HR MIN TEMP: 77; 6HR MAX TEMP: 88; Dallas DFW CLEAR 85 71 63 S6 30.00F HX 90 6HR MIN TEMP: 85; 6HR MAX TEMP: 97; Houston Bush PTCLDY 83 73 72 SW3 30.03S 6HR MIN TEMP: 82; 6HR MAX TEMP: 93; Wash National CLEAR 86 70 58 NW8 29.93F HX 90 6HR MIN TEMP: 85; 6HR MAX TEMP: 92; Wash Dulles MOCLDY 76 68 76 CALM 29.95S 6HR MIN TEMP: 76; 6HR MAX TEMP: 89; Baltimore MOCLDY 81 70 69 W6 29.92S 6HR MIN TEMP: 81; 6HR MAX TEMP: 92; Philadelphia MOCLDY 83 68 60 SW6 29.90S 6HR MIN TEMP: 81; 6HR MAX TEMP: 92; Newark CLOUDY 76 69 79 W7 29.89S 6HR MIN TEMP: 76; 6HR MAX TEMP: 90; 6HR PCP: TRACE; Laguardia MOCLDY 80 69 69 NW8 29.87S 6HR MIN TEMP: 79; 6HR MAX TEMP: 91; 6HR PCP: TRACE; J F K CLOUDY 80 71 74 W10 29.89R 6HR MIN TEMP: 80; 6HR MAX TEMP: 90; 6HR PCP: TRACE; Boston CLEAR 78 65 63 W3 29.81F 6HR MIN TEMP: 71; 6HR MAX TEMP: 88; 6HR PCP: TRACE; Pittsburg MOCLDY 75 72 90 SW5 30.00F 6HR MIN TEMP: 74; 6HR MAX TEMP: 79; Akron CLEAR 75 70 84 SW3 30.00S 6HR MIN TEMP: 75; 6HR MAX TEMP: 84; Cleveland PTCLDY 76 71 85 SW5 29.99S 6HR MIN TEMP: 76; 6HR MAX TEMP: 85; Cincinnati CLEAR 80 74 81 SW7 30.01F 6HR MIN TEMP: 79; 6HR MAX TEMP: 87; Columbus PTCLDY 77 76 98 S7 29.98S Detroit PTCLDY 76 72 87 W5 29.95S 6HR MIN TEMP: 76; 6HR MAX TEMP: 84; Chicago O`Hare CLOUDY 75 69 81 CALM 29.96F 6HR MIN TEMP: 74; 6HR MAX TEMP: 80; Minneapolis PTCLDY 75 68 78 S6 29.96R 6HR MIN TEMP: 75; 6HR MAX TEMP: 88; Indianapolis CLOUDY 80 73 79 SW9 29.97S 6HR MIN TEMP: 80; 6HR MAX TEMP: 86; Toronto Canada CLEAR 70 64 83 NW6 29.90S $$

USA.gov is the U.S. government's official web portal to all federal, state and local government web resources and services.